Weather in Zorynsk

Ukraine / Luhansk Region     48°24′58″N   38°37′08″E
temp.,
°C
wind,
m/s
gust,
m/s
humid.,
%
clouds,
%
prec.,
mm/h
press.,
hPa
HPBL,
m
22 april, thu
thu2200:00+9ssw488097 0.0 1019233
03:00+8ssw368875 0.1 1020154
06:00+7sw35925 0.0 1021113
09:00+12sw34655 0.0 1022650
12:00+16sw344868 0.6 10211850
15:00+15ssw2350100 1.3 1021945
18:00+14sw126093 0.1 102124
21:00+11ssw116611 0.1 102210
23 april, fri
fri2300:00+9sw227414 0.0 102213
03:00+8sw338317 0.0 102235
06:00+8sw34845 0.0 102267
09:00+12sw456882 0.0 1022496
12:00+16sw564474 0.1 10202199
15:00+17sw4639100 0.1 10182302
18:00+15ssw685456 0.0 1017642
21:00+10ssw51168100 0.0 1018327
24 april, sat
sat2400:00+9ssw51270100 0.0 1016425
03:00+9ssw5973100 0.0 1015418
06:00+9ssw5117954 0.0 1014519
09:00+7wnw6889100 0.6 1015753
12:00+10w585673 0.8 10161748
15:00+12w81137100 0.8 10152621
18:00+11w7124714 0.0 10152027
21:00+6w611676 0.1 10191049
25 april, sun
sun2500:00+4w611634 0.0 1020610
03:00+3w6117214 0.0 1020590
06:00+2w410784 0.0 1021314
09:00+7wnw57525 0.0 10211186
12:00+10wnw463988 0.0 10212142
15:00+12wnw4534100 0.0 10202222
18:00+11w2338100 0.0 10191856
21:00+8sw1146100 0.0 102010
26 april, mon
mon2600:00+6s225099 0.0 102017
03:00+5ssw2257100 0.0 101916
06:00+5sw2261100 0.0 101825
09:00+10ssw35465 0.0 1017737
12:00+13ssw573635 0.0 10162066
15:00+12w9105786 0.3 10151621
18:00+8wnw695888 0.3 10161512
21:00+5w22695 0.3 101723